Hourly Weather Roundup
Issued by NWS Central Illinois

Home | Current Version | Previous Version | Text Only | Print | Product List | Glossary On
Versions: 1 2 3 4 5 6 7 8 9 10 11 12 13 14 15 16 17 18 19 20 21 22 23 24 25 26 27 28 29 30 31 32 33 34 35 36 37 38 39 40 41 42 43 44 45 46 47 48 49 50
000
NZUS43 KILX 251910
HWRILX

Area Weather Roundup
National Weather Service Lincoln IL
200 PM CDT THU MAY 25 2017

NOTE:  "FAIR" indicates few or no clouds below 12,000 feet, with
       no sigificant weather and/or obstructions to visibility.


CITY           SKY/WX    TMP DP  RH WIND       PRES   REMARKS
Bloomington    CLOUDY    60  54  80 NW9       29.71S
Champaign      CLOUDY    62  54  74 NW13      29.69R
Danville       CLOUDY    62  55  77 W13G18    29.63S
Decatur        PTSUNNY   67  56  67 NW10      29.70S
Effingham      PTSUNNY   70  58  65 W10       29.71S
Flora          MOSUNNY   72  57  58 NW12      29.70S
Galesburg      PTSUNNY   69  53  56 NW5       29.68F
Jacksonville   PTSUNNY   68  54  60 NW6       29.71R
Lacon          CLOUDY    60  55  83 N5        29.69F
Lawrenceville  PTSUNNY   67  57  70 W16       29.69S
Litchfield     MOSUNNY   68  55  62 W9        29.72S
$$


CITY           SKY/WX    TMP DP  RH WIND       PRES   REMARKS
Lincoln        PTSUNNY   69  58  68 NW5       29.69S
Macomb         PTSUNNY   68  56  65 W6        29.72S
Mattoon        CLOUDY    64  57  78 NW12      29.70R
Mt Carmel AP   PTSUNNY   69  58  68 NW13      29.69R
Olney-Noble AP PTSUNNY   70  59  69 W13       29.70S
Paris AP       CLOUDY    64  57  78 NW15G21   29.68R
Peoria         PTSUNNY   67  56  67 VRB3      29.69S
Pontiac        CLOUDY    62  57  82 NW10      29.69S
Rantoul        CLOUDY    64  57  77 NW15      29.68S
Robinson       CLOUDY    64  56  75 NW13      29.70S
Springfield    CLOUDY    71  57  61 W8        29.70S
Taylorville    PTSUNNY   69  56  63 NW9G20    29.71R
$$

...REGIONAL REPORTS...


CITY           SKY/WX    TMP DP  RH WIND       PRES   REMARKS
Chicago O`Hare PTSUNNY   67  53  61 N8        29.63S
Kankakee       CLOUDY    64  54  72 W12G18    29.66R
Moline         PTSUNNY   70  54  56 VRB3      29.68F
Mount Sterling MOSUNNY   67  54  61 NW5       29.71S
Mount Vernon     N/A     72  55  55 VRB5G16   29.72R
Pittsfield     MOSUNNY   69  55  60 W7        29.73S
Quincy         MOSUNNY   69  52  54 VRB3      29.71F
Rockford       PTSUNNY   65  54  67 N8        29.68F
$$


CITY           SKY/WX    TMP DP  RH WIND       PRES   REMARKS
Burlington     MOSUNNY   70  54  56 MISG      29.69F
Cedar Rapids   SUNNY     68  53  58 CALM      29.68F
Des Moines     MOSUNNY   71  50  47 S12       29.66F
Kirksville     MOSUNNY   70  50  49 MISG      29.71F
Ottumwa        MOSUNNY   70  50  49 SE6       29.68F
St Louis       MOSUNNY   76  52  43 W8        29.72F
$$


CITY           SKY/WX    TMP DP  RH WIND       PRES   REMARKS
Terre Haute    CLOUDY    65  54  67 W14G26    29.66R
Evansville     PTSUNNY   72  56  57 W10       29.70R
Indianapolis   CLOUDY    62  55  77 NW15      29.61R
Lafayette      CLOUDY    61  56  83 NW16      29.62R
Madison        PTSUNNY   68  54  60 NE9G16    29.66F
Milwaukee      MOSUNNY   65  53  65 NE14G20   29.65S
$$






USA.gov is the U.S. government's official web portal to all federal, state and local government web resources and services.